Tracking 18823 objects as of 20-October-2017
HD Live streaming from Space Station
objects crossing your sky now

COSMOS 2251 DEB

Track COSMOS 2251 DEB now!
10-day predictions


NORAD ID: 34131
Int'l Code: 1993-036LC
Perigee: 692.3 km
Apogee: 710.4 km
Inclination: 74.1 °
Period: 98.7 minutes
Semi major axis: 7072 km
RCS: 0.018 m2 (small)
Launch date: June 16, 1993
Source: Commonwealth of Independent States (former USSR) (CIS)
Launch site: PLESETSK MISSILE AND SPACE COMPLEX (PKMTR)

Note: This is SATELLITE DEBRIS
aabbcc
Your satellite tracking list
Your tracking list is empty





NASA's NSSDC Master Catalog

Two Line Element Set (TLE):
1 34131U 93036LC  17292.96482670 +.00002699 +00000-0 +57171-3 0  9996
2 34131 074.1204 260.8250 0012746 254.8660 159.7406 14.59682703457807
Source of the keplerian elements: AFSPC